This is the latest recevied weather packets stored in our database for station/object DL1MMS-10. If no packets are shown the sender has not sent any weather packets the latest 10 day(s).
| Time | Temp. | Humidity | Pressure | Rain* | Wind** | Luminosity | Snow |
|---|---|---|---|---|---|---|---|
| 1777725832 | 33.89° C | 22% | 1021.1 hPa | 0 mm | - | - | - |
| 1777725531 | 32.78° C | 22% | 1021.2 hPa | 0 mm | - | - | - |
| 1777725231 | 32.78° C | 22% | 1021.3 hPa | 0 mm | - | - | - |
| 1777724931 | 32.78° C | 21% | 1021.3 hPa | 0 mm | - | - | - |
| 1777724631 | 33.89° C | 21% | 1021.4 hPa | 0 mm | - | - | - |
| 1777724330 | 33.89° C | 23% | 1021.4 hPa | 0 mm | - | - | - |
| 1777724030 | 33.89° C | 21% | 1021.5 hPa | 0 mm | - | - | - |
| 1777723730 | 34.44° C | 21% | 1021.4 hPa | 0 mm | - | - | - |
| 1777723429 | 34.44° C | 23% | 1021.4 hPa | 0 mm | - | - | - |
| 1777723129 | 33.89° C | 24% | 1021.6 hPa | 0 mm | - | - | - |
| 1777722829 | 32.78° C | 24% | 1021.6 hPa | 0 mm | - | - | - |
| 1777722529 | 32.78° C | 24% | 1021.6 hPa | 0 mm | - | - | - |
| 1777722228 | 32.78° C | 24% | 1021.9 hPa | 0 mm | - | - | - |
| 1777721928 | 32.78° C | 24% | 1021.9 hPa | 0 mm | - | - | - |
| 1777721628 | 31.67° C | 24% | 1021.9 hPa | 0 mm | - | - | - |
| 1777721328 | 31.67° C | 25% | 1022 hPa | 0 mm | - | - | - |
| 1777721027 | 32.78° C | 24% | 1021.9 hPa | 0 mm | - | - | - |
| 1777720727 | 33.33° C | 23% | 1022 hPa | 0 mm | - | - | - |
| 1777720427 | 33.89° C | 24% | 1022.2 hPa | 0 mm | - | - | - |
| 1777720126 | 33.33° C | 24% | 1022.2 hPa | 0 mm | - | - | - |
| 1777719826 | 33.33° C | 24% | 1022 hPa | 0 mm | - | - | - |
| 1777719526 | 33.89° C | 24% | 1022.1 hPa | 0 mm | - | - | - |
| 1777719226 | 33.33° C | 24% | 1022.2 hPa | 0 mm | - | - | - |
| 1777718925 | 33.89° C | 25% | 1022.2 hPa | 0 mm | - | - | - |
| 1777718625 | 32.78° C | 26% | 1022.2 hPa | 0 mm | - | - | - |
* Rain latest hour (hover to see other rain measurements)
** Current wind speed in m/s (hover to see current wind gust speed)